Regional Weather Roundup
Issued by NWS

Home | Current Version | Previous Version | Graphics & Text | Print | Product List | Glossary On
Versions: 1 2 3 4 5 6 7 8 9 10 11 12 13 14 15 16 17 18 19 20 21 22 23 24 25 26 27 28 29 30 31 32 33 34 35 36 37 38 39 40 41 42 43 44 45 46 47 48 49 50
000
ASUS43 KMPX 011310
RWRMN
WEATHER ROUNDUP FOR MINNESOTA
NATIONAL WEATHER SERVICE TWIN CITIES/CHANHASSEN MN
800 AM CDT WED OCT 01 2014


NOTE: "FAIR" INDICATES FEW OR NO CLOUDS BELOW 12,000 FEET WITH NO
SIGNIFICANT WEATHER AND/OR OBSTRUCTIONS TO VISIBILITY. N/A MEANS
CURRENT SKY AND/OR WEATHER CONDITIONS ARE NOT AVAILABLE.

MNZ060>063-068>070-011400-
   Twin Cities Metro

CITY           SKY/WX    TMP DP  RH WIND       PRES   REMARKS
TWIN CITIES    LGT RAIN  50  47  89 SE10      29.85R FOG
ST PAUL        LGT RAIN  50  48  93 SE10      29.87S FOG
CRYSTAL        LGT RAIN  51  47  86 SE10G18   29.84R FOG
BLAINE         CLOUDY    52  50  93 SE12      29.84S
LAKEVILLE      LGT RAIN  48  46  93 SE8       29.85R
EDEN PRAIRIE   RAIN      50  49  96 SE12      29.83R FOG
SOUTH ST PAUL  LGT RAIN  50  47  90 SE7       29.86S
LAKE ELMO      RAIN      50  48  93 SE10G16   29.87S
$$
MNZ001>005-007-008-013>017-022>024-027-028-011400-
   Northwest Minnesota

CITY           SKY/WX    TMP DP  RH WIND       PRES   REMARKS
BEMIDJI        CLOUDY    53  50  90 S14G20    29.70S
HALLOCK        CLOUDY    59  52  77 S18G25    29.52R
ROSEAU         CLOUDY    61  54  77 S24G30    29.56S
WARROAD        CLOUDY    55  52  88 SE18G24   29.59R
THIEF RVR FALL CLOUDY    61  54  77 S20G31    29.59R
CROOKSTON      CLOUDY    61  54  77 S17       29.60R
FOSSTON        CLOUDY    57  54  88 S15G23    29.65R
DETROIT LAKES  CLOUDY    59  55  88 S13       29.69S
PARK RAPIDS    CLOUDY    51  51 100 S20       29.73S FOG
MAHNOMEN       CLOUDY    59  55  88 S14G20    29.66R
$$
MNZ006-009>011-018-025>026-011400-
   North Central Minnesota

CITY           SKY/WX    TMP DP  RH WIND       PRES   REMARKS
BAUDETTE       CLOUDY    53  48  83 S12G22    29.65F
FLAG ISLAND    CLOUDY    55  52  88 S35       29.58S
INTL FALLS     CLOUDY    52  47  83 VRB7      29.74S
WASKISH        MOCLDY    52  48  87 SE12G18   29.68F
BIG FORK       CLOUDY    50  46  87 S12G17    29.77S FOG
LONGVILLE      LGT RAIN  50  48  93 SE8       29.77S
GRAND RAPIDS   CLOUDY    48  43  81 SE12      29.80S
CRANE LAKE     CLOUDY    48  46  93 S8        29.80S
ORR            CLOUDY    48  45  87 S12G23    29.77R
COOK           CLOUDY    48  46  93 SE6       29.82R
WALKER         CLOUDY    51  49  94 S12G21    29.74S
$$
MNZ012-019>021-037-011400-
   Northeast Minnesota

CITY           SKY/WX    TMP DP  RH WIND       PRES   REMARKS
DULUTH         RAIN      47  44  90 SE12      29.86S FOG
ELY            CLOUDY    48  45  87 S10       29.83S
HIBBING        CLOUDY    49  44  83 SE10      29.83R
EVELETH        CLOUDY    46  43  87 SE8       29.85R
DULUTH HARBOR  CLOUDY    50  46  87 CALM      29.88F
TWO HARBORS    CLOUDY    46  41  81 E5        29.87S
SILVER BAY     MOCLDY    45  45 100 SE6       29.88S
GRAND MARAIS     N/A     50  47  89 VRB3      29.92F
G MARAIS ARPRT FOG       43  41  93 SE6       29.91S VSB 1/4
$$
MNZ029>031-032-039>041-046>048-054>057-064-011400-
   West Central Minnesota

CITY           SKY/WX    TMP DP  RH WIND       PRES   REMARKS
FERGUS FALLS   MOCLDY    61  57  88 S8        29.70R FOG
WHEATON        CLOUDY    57  55  94 SE9       29.70S FOG
MORRIS         CLOUDY    57  55  94 SE12      29.71S FOG
ALEXANDRIA     CLOUDY    54  53  97 SE13      29.75S FOG
ELBOW LAKE     CLOUDY    57  56  95 S12       29.71R FOG
WADENA         CLOUDY    52  52 100 SE15      29.73S
GLENWOOD       DRIZZLE   54  54 100 SE9       29.76S
APPLETON       CLOUDY    61  57  88 SE10      29.71S FOG
BENSON         LGT RAIN  55  55 100 S9        29.74S
ORTONVILLE     CLOUDY    61  57  88 SE5       29.71R FOG
MADISON        CLOUDY    64  63  94 SE9       29.72S FOG
WILLMAR        LGT RAIN  55  52  88 SE12      29.78S
$$
MNZ033>034-036-042>043-049>051-058-059-011400-
   Central Minnesota

CITY           SKY/WX    TMP DP  RH WIND       PRES   REMARKS
ST CLOUD       CLOUDY    53  46  77 SE9       29.81R
SAUK CENTRE    DRIZZLE   51  50  98 SE9       29.77S
PAYNESVILLE    CLOUDY    50  49  96 E12G18    29.79R FOG
AITKIN         CLOUDY    52  45  76 S9        29.80R
PINE RIVER     CLOUDY    50  50 100 SE7       29.81R FOG
BRAINERD       CLOUDY    50  47  89 SE12      29.79S FOG
STAPLES        CLOUDY    50  48  93 SE9       29.76S FOG
LONG PRAIRIE   CLOUDY    50  48  93 SE12      29.78R FOG
LITTLE FALLS   CLOUDY    50  45  81 SE7       29.80R
LITCHFIELD     CLOUDY    54  52  94 SE9       29.80S
BUFFALO        CLOUDY    52  46  80 SE8       29.83R
MAPLE LAKE     CLOUDY    53  49  86 SE8       29.82S
$$
MNZ037-044-045-052-053-011400-
   East Central Minnesota

CITY           SKY/WX    TMP DP  RH WIND       PRES   REMARKS
PRINCETON      CLOUDY    52  46  82 SE8       29.83R
MORA           CLOUDY    48  43  81 SE7       29.86R
CAMBRIDGE      CLOUDY    52  43  71 SE12      29.82S
RUSH CITY      CLOUDY    48  45  89 SE7       29.86R
MOOSE LAKE     CLOUDY    46  43  87 SE6       29.83S
HINCKLEY       CLOUDY    48  45  87 SE7       29.85S
CLOQUET        CLOUDY    46  43  87 E7        29.84F
MCGREGOR       CLOUDY    48  45  87 SE10      29.83R
$$
MNZ071>073-080-081-089-090-097-098-011400-
   Southwest Minnesota

CITY           SKY/WX    TMP DP  RH WIND       PRES   REMARKS
MONTEVIDEO     RAIN      59  59 100 S7        29.75R
GRANITE FALLS  CLOUDY    58  57  97 SE7       29.76S FOG
CANBY          CLOUDY    62  60  94 SE5       29.74R FOG
MARSHALL       CLOUDY    61  55  82 S8        29.74R
REDWOOD FALLS  CLOUDY    58  54  86 S12       29.77R
OLIVIA         CLOUDY    57  54  88 SE10G17   29.77R
PIPESTONE      CLOUDY    61  59  94 SW5       29.75S FOG
WINDOM         CLOUDY    55  54  94 SE7       29.78S FOG
WORTHINGTON    CLOUDY    57  55  94 SE6       29.77S
JACKSON        CLOUDY    55  54  94 E5        29.78S FOG
TRACY          CLOUDY    59  57  92 S8        29.76R
SLAYTON        CLOUDY    57  56  97 S6        29.77S FOG
$$
MNZ065>067-074>077-082>085-091>093-011400-
   South Central Minnesota

CITY           SKY/WX    TMP DP  RH WIND       PRES   REMARKS
MANKATO        CLOUDY    52  46  82 SE14      29.81S
NEW ULM        CLOUDY    54  54 100 SE9       29.79S
ST JAMES       CLOUDY    55  54  94 SE7       29.80R
FAIRMONT       CLOUDY    54  48  82 SE13      29.77F
GLENCOE        DRIZZLE   54  49  83 SE7       29.81R
FARIBAULT      RAIN      52  48  87 SE9       29.85R
OWATONNA       RAIN      50  48  93 SE15      29.84S
WASECA         RAIN      50  46  87 SE13G18   29.84S
ALBERT LEA     RAIN      50  50 100 SE13      29.82F
$$
MNZ078>079-086>088-094>096-011400-
   Southeast Minnesota

CITY           SKY/WX    TMP DP  RH WIND       PRES   REMARKS
ROCHESTER      LGT RAIN  48  47  96 SE14G21   29.88S FOG
RED WING       LGT RAIN  50  48  93 SE9       29.88R
STANTON        RAIN      51  47  88 SE8       29.84S
DODGE CENTER   RAIN      48  48 100 SE14      29.86S
WINONA         CLOUDY    48  46  93 SE7       29.92S
AUSTIN         RAIN      48  46  93 SE10G16   29.85S
PRESTON        CLOUDY    47  46  93 SE10      29.89F FOG
$$
ABBREVIATIONS USED IN REMARKS
   TC - TEMPERATURES IN CELSIUS
  WCI - WIND CHILL INDEX
   HX - HEAT INDEX
  VSB - VISIBILITY
$$


USA.gov is the U.S. government's official web portal to all federal, state and local government web resources and services.